Total_Precipitation_Accumulation
0.18 0.17 0.18 0.15 0.09 0.11 0.17 0.19 0.21 0.15 0.11 0.10 0.08 0.04 0.01 0.00 0.00 0.00 0.00 0.00 0.00 0.00 0.00 0.00 0.00 0.00 0.00 0.00 0.00 0.02 0.04 0.09 0.14 0.23 0.24 0.21 0.17 0.11 0.05 0.01 0.00 0.00 0.00 0.00
0.14 0.07 0.13 0.17 0.10 0.08 0.07 0.06 0.05 0.02 0.01 0.00 0.00 0.00 0.00 0.00 0.00 0.00 0.00 0.00 0.00 0.00 0.00 0.00 0.00 0.00 0.00 0.00 0.00 0.01 0.01 0.03 0.06 0.11 0.16 0.20 0.19 0.12 0.06 0.03 0.02 0.02 0.02 0.01
0.20 0.08 0.16 0.31 0.05 0.02 0.02 0.01 0.01 0.01 0.00 0.00 0.00 0.00 0.00 0.00 0.00 0.00 0.00 0.00 0.00 0.00 0.00 0.00 0.00 0.00 0.00 0.00 0.01 0.01 0.01 0.01 0.03 0.05 0.10 0.16 0.18 0.18 0.14 0.08 0.05 0.03 0.03 0.02
0.18 0.16 0.32 0.07 0.00 0.01 0.00 0.00 0.00 0.00 0.00 0.00 0.00 0.00 0.00 0.00 0.00 0.00 0.00 0.00 0.00 0.01 0.02 0.02 0.03 0.02 0.02 0.01 0.01 0.01 0.03 0.04 0.07 0.11 0.16 0.19 0.20 0.18 0.17 0.15 0.10 0.06 0.05 0.04
0.19 0.15 0.09 0.02 0.00 0.00 0.00 0.00 0.00 0.00 0.00 0.00 0.00 0.00 0.00 0.00 0.00 0.00 0.00 0.00 0.01 0.02 0.02 0.02 0.03 0.03 0.02 0.01 0.01 0.02 0.05 0.06 0.08 0.11 0.14 0.18 0.23 0.22 0.20 0.18 0.15 0.11 0.08 0.07
0.49 0.22 0.06 0.00 0.00 0.00 0.00 0.00 0.00 0.00 0.00 0.00 0.00 0.00 0.00 0.00 0.00 0.00 0.00 0.00 0.00 0.00 0.00 0.05 0.08 0.10 0.08 0.14 0.19 0.20 0.16 0.13 0.13 0.17 0.21 0.27 0.32 0.34 0.32 0.28 0.24 0.19 0.15 0.10
0.47 0.44 0.16 0.01 0.00 0.00 0.01 0.00 0.00 0.00 0.00 0.00 0.00 0.00 0.00 0.00 0.00 0.00 0.00 0.00 0.00 0.00 0.01 0.04 0.03 0.04 0.09 0.19 0.26 0.24 0.27 0.28 0.31 0.31 0.35 0.44 0.55 0.59 0.57 0.47 0.37 0.29 0.20 0.12
0.23 0.39 0.32 0.15 0.04 0.03 0.01 0.00 0.00 0.00 0.00 0.00 0.00 0.00 0.00 0.00 0.00 0.00 0.00 0.00 0.00 0.01 0.02 0.02 0.03 0.09 0.22 0.39 0.35 0.28 0.24 0.27 0.33 0.40 0.49 0.54 0.60 0.64 0.61 0.54 0.43 0.29 0.18 0.10
0.37 0.42 0.44 0.31 0.14 0.03 0.01 0.00 0.00 0.00 0.00 0.00 0.00 0.00 0.00 0.00 0.00 0.00 0.00 0.01 0.02 0.01 0.01 0.04 0.17 0.25 0.44 0.39 0.36 0.37 0.39 0.50 0.55 0.52 0.57 0.62 0.56 0.53 0.47 0.41 0.32 0.22 0.12 0.06
0.03 0.11 0.14 0.29 0.13 0.05 0.02 0.00 0.00 0.00 0.00 0.00 0.00 0.00 0.00 0.00 0.00 0.00 0.00 0.02 0.09 0.07 0.04 0.07 0.44 0.64 0.42 0.18 0.15 0.25 0.37 0.46 0.52 0.55 0.53 0.52 0.50 0.38 0.25 0.21 0.15 0.10 0.06 0.03
0.00 0.00 0.01 0.14 0.07 0.02 0.03 0.03 0.01 0.00 0.00 0.00 0.00 0.00 0.00 0.00 0.00 0.00 0.06 0.01 0.01 0.02 0.02 0.19 0.34 0.33 0.21 0.17 0.17 0.23 0.28 0.33 0.33 0.32 0.29 0.27 0.24 0.20 0.16 0.11 0.06 0.04 0.02 0.01
0.00 0.00 0.01 0.07 0.15 0.31 0.15 0.06 0.01 0.00 0.00 0.00 0.00 0.00 0.00 0.00 0.00 0.02 0.04 0.00 0.00 0.01 0.00 0.04 0.02 0.07 0.16 0.25 0.19 0.18 0.19 0.18 0.17 0.21 0.19 0.16 0.16 0.20 0.19 0.15 0.11 0.08 0.03 0.00
0.00 0.00 0.00 0.09 0.07 0.05 0.07 0.04 0.03 0.00 0.00 0.00 0.00 0.00 0.00 0.00 0.00 0.01 0.17 0.14 0.02 0.00 0.00 0.00 0.00 0.00 0.03 0.09 0.02 0.01 0.01 0.02 0.06 0.08 0.10 0.09 0.11 0.09 0.06 0.08 0.06 0.02 0.00 0.00
0.00 0.00 0.00 0.01 0.01 0.00 0.00 0.00 0.00 0.00 0.00 0.00 0.00 0.00 0.00 0.00 0.00 0.00 0.00 0.04 0.03 0.00 0.00 0.00 0.00 0.00 0.00 0.00 0.00 0.00 0.00 0.00 0.00 0.00 0.02 0.05 0.05 0.05 0.03 0.01 0.01 0.01 0.00 0.00
0.00 0.00 0.00 0.00 0.00 0.00 0.00 0.00 0.00 0.00 0.00 0.00 0.00 0.00 0.00 0.00 0.00 0.00 0.00 0.00 0.00 0.00 0.00 0.01 0.01 0.00 0.00 0.00 0.00 0.00 0.00 0.00 0.00 0.00 0.00 0.00 0.01 0.01 0.01 0.00 0.00 0.01 0.01 0.02
0.00 0.00 0.00 0.00 0.00 0.00 0.00 0.00 0.00 0.00 0.00 0.00 0.00 0.00 0.00 0.00 0.00 0.00 0.00 0.00 0.00 0.00 0.00 0.00 0.03 0.04 0.02 0.00 0.00 0.00 0.01 0.00 0.00 0.00 0.00 0.00 0.00 0.00 0.00 0.00 0.00 0.00 0.01 0.01
0.00 0.00 0.00 0.00 0.00 0.00 0.00 0.00 0.00 0.00 0.00 0.00 0.00 0.00 0.00 0.00 0.00 0.00 0.00 0.00 0.00 0.01 0.01 0.01 0.01 0.02 0.02 0.00 0.00 0.00 0.02 0.04 0.04 0.04 0.04 0.02 0.01 0.00 0.00 0.00 0.00 0.00 0.00 0.00
0.01 0.00 0.00 0.00 0.00 0.00 0.00 0.00 0.00 0.00 0.00 0.00 0.00 0.00 0.00 0.00 0.00 0.00 0.00 0.00 0.00 0.00 0.00 0.03 0.03 0.03 0.08 0.08 0.03 0.03 0.04 0.06 0.08 0.09 0.08 0.07 0.04 0.02 0.01 0.00 0.00 0.00 0.00 0.00
0.01 0.02 0.00 0.00 0.00 0.01 0.01 0.01 0.00 0.00 0.00 0.00 0.00 0.00 0.00 0.00 0.00 0.00 0.00 0.00 0.00 0.00 0.00 0.01 0.03 0.02 0.02 0.13 0.24 0.18 0.12 0.11 0.12 0.12 0.11 0.10 0.08 0.04 0.03 0.01 0.00 0.00 0.00 0.01
0.01 0.10 0.05 0.00 0.01 0.03 0.01 0.00 0.00 0.00 0.00 0.00 0.00 0.00 0.00 0.00 0.00 0.00 0.00 0.00 0.00 0.00 0.00 0.00 0.00 0.00 0.00 0.02 0.14 0.28 0.34 0.26 0.23 0.23 0.20 0.16 0.14 0.08 0.03 0.02 0.01 0.02 0.01 0.01
0.01 0.08 0.17 0.06 0.02 0.04 0.01 0.00 0.00 0.00 0.00 0.00 0.00 0.00 0.00 0.00 0.00 0.00 0.00 0.00 0.00 0.00 0.00 0.01 0.00 0.00 0.00 0.02 0.04 0.04 0.16 0.33 0.38 0.31 0.29 0.31 0.31 0.29 0.24 0.15 0.09 0.05 0.03 0.02
0.05 0.20 0.25 0.15 0.04 0.02 0.02 0.00 0.00 0.00 0.00 0.00 0.00 0.00 0.00 0.00 0.00 0.00 0.00 0.00 0.00 0.00 0.00 0.00 0.00 0.01 0.01 0.02 0.01 0.01 0.01 0.05 0.14 0.26 0.37 0.47 0.50 0.44 0.36 0.31 0.26 0.18 0.13 0.09
0.01 0.04 0.06 0.03 0.03 0.01 0.01 0.00 0.00 0.00 0.00 0.00 0.00 0.00 0.00 0.00 0.00 0.00 0.01 0.00 0.00 0.00 0.00 0.00 0.02 0.02 0.02 0.01 0.01 0.01 0.01 0.04 0.10 0.13 0.18 0.29 0.38 0.42 0.41 0.37 0.31 0.27 0.24 0.16
0.00 0.00 0.00 0.00 0.00 0.00 0.00 0.00 0.00 0.00 0.00 0.00 0.00 0.00 0.00 0.00 0.00 0.00 0.01 0.00 0.00 0.01 0.01 0.01 0.02 0.02 0.02 0.03 0.04 0.04 0.06 0.13 0.17 0.18 0.25 0.32 0.36 0.30 0.32 0.33 0.30 0.27 0.22 0.16
0.00 0.00 0.00 0.00 0.00 0.00 0.00 0.00 0.00 0.00 0.00 0.00 0.00 0.00 0.00 0.00 0.00 0.00 0.00 0.00 0.00 0.00 0.00 0.02 0.03 0.03 0.07 0.08 0.08 0.09 0.11 0.17 0.20 0.26 0.30 0.30 0.26 0.20 0.16 0.13 0.14 0.16 0.15 0.13
0.00 0.00 0.00 0.00 0.00 0.00 0.00 0.00 0.00 0.00 0.00 0.00 0.00 0.00 0.00 0.00 0.00 0.00 0.00 0.01 0.00 0.00 0.01 0.01 0.02 0.05 0.08 0.09 0.10 0.11 0.12 0.15 0.18 0.20 0.19 0.17 0.15 0.16 0.14 0.15 0.16 0.16 0.14 0.13
0.01 0.01 0.00 0.00 0.00 0.00 0.00 0.00 0.00 0.00 0.00 0.00 0.00 0.00 0.00 0.00 0.00 0.01 0.00 0.00 0.00 0.01 0.01 0.01 0.01 0.04 0.08 0.09 0.09 0.08 0.10 0.12 0.13 0.13 0.14 0.15 0.16 0.16 0.16 0.17 0.16 0.15 0.14 0.14